Location: Unspecified
(71.9851°N, 0.0000°E)
Time: 01:14:15
(UTC+00:00)

Meteor 1-17 Rocket - Visible Passes

Search period start: 04 April 2026 00:00
Search period end: 14 April 2026 00:00
Orbit: 829 x 910 km, 81.2° (Epoch: 29 March)

Date Brightness Start Highest point End Pass type
(mag) Time Alt. Az. Time Alt. Az. Time Alt. Az.
4 Apr 5.9 01:02:52 10° NW 01:08:31 47° NE 01:14:01 10° ESE visible
4 Apr 4.9 02:46:36 10° NNW 02:52:27 88° ENE 02:58:09 10° SSE visible
4 Apr 6.5 21:27:20 10° W 21:32:46 37° NNW 21:38:06 10° NE visible
4 Apr 6.6 23:12:12 10° WNW 23:17:31 35° N 23:22:43 10° ENE visible
5 Apr 5.9 00:56:27 10° NW 01:02:05 48° NE 01:07:35 10° ESE visible
5 Apr 4.8 02:40:11 10° NNW 02:46:01 89° ENE 02:51:42 10° SSE visible
5 Apr 6.5 21:20:56 10° W 21:26:21 37° NNW 21:31:39 10° NE visible
5 Apr 6.6 23:05:47 10° WNW 23:11:05 35° N 23:16:17 10° ENE visible
6 Apr 5.9 00:50:02 10° NW 00:55:39 48° NE 01:01:09 10° ESE visible
6 Apr 4.8 02:33:45 10° NNW 02:39:34 89° NE 02:45:14 10° SSE visible
6 Apr 6.5 21:14:31 10° W 21:19:55 37° NNW 21:25:13 10° NE visible
6 Apr 6.5 22:59:21 10° NW 23:04:40 35° N 23:09:52 10° ENE visible
7 Apr 5.9 00:43:36 10° NW 00:49:13 48° NE 00:54:43 10° ESE visible
7 Apr 4.8 02:27:19 10° NNW 02:33:08 90° WSW 02:38:47 10° SSE visible
7 Apr 6.5 21:08:06 10° W 21:13:29 37° NNW 21:18:47 10° NE visible
7 Apr 6.5 22:52:57 10° NW 22:58:15 35° N 23:03:25 10° ENE visible
8 Apr 5.8 00:37:11 10° NW 00:42:47 48° NE 00:48:16 10° ESE visible
8 Apr 4.8 02:20:53 10° NNW 02:26:41 89° WSW 02:32:20 10° SSE visible
8 Apr 6.5 22:46:31 10° NW 22:51:49 35° N 22:57:00 10° ENE visible
9 Apr 5.8 00:30:46 10° NW 00:36:22 49° NE 00:41:50 10° ESE visible
9 Apr 4.8 02:14:27 10° NNW 02:20:14 88° WSW 02:25:53 10° SSE visible
9 Apr 6.5 22:40:07 10° NW 22:45:23 35° N 22:50:34 10° ENE visible
10 Apr 5.8 00:24:19 10° NW 00:29:56 49° NE 00:35:24 10° ESE visible
10 Apr 4.8 02:08:01 10° NNW 02:13:48 88° WSW 02:19:26 10° SSE visible
10 Apr 6.5 22:33:42 10° NW 22:38:58 35° N 22:44:07 10° ENE visible
11 Apr 5.8 00:17:54 10° NW 00:23:30 49° NE 00:28:57 10° ESE visible
11 Apr 4.8 02:01:35 10° NNW 02:07:21 87° WSW 02:12:58 10° SSE visible
11 Apr 6.5 22:27:17 10° NW 22:32:32 35° N 22:37:41 10° ENE visible
12 Apr 5.7 00:11:28 10° NW 00:17:04 49° NE 00:22:31 10° ESE visible
12 Apr 4.8 01:55:09 10° NNW 02:00:54 86° WSW 02:06:31 10° SSE visible
12 Apr 6.4 22:20:52 10° NW 22:26:06 35° NNE 22:31:15 10° ENE visible
13 Apr 5.7 00:05:03 10° NW 00:10:37 50° NE 00:16:04 10° ESE visible
13 Apr 4.8 01:48:43 10° NNW 01:54:28 85° WSW 02:00:04 10° SSE visible
13 Apr 6.4 22:14:26 10° NW 22:19:41 35° NNE 22:24:49 10° ENE visible
